Location: Baia Mare
(47.6567°N, 23.5850°E)
Time: 13:42:02
(UTC+03:00)

ISS - Pass Details

Date: 17 July 2019
Orbit: 409 x 418 km, 51.6° (Epoch: 21 July)

Event Time Altitude Azimuth Distance (km) Brightness Sun altitude
Rises 04:56:38 0° 291° (WNW) 2,345 -0.2 -7.2°
Reaches altitude 10° 04:58:50 10° 282° (WNW) 1,479 -1.3 -6.9°
Maximum altitude 05:01:51 33° 216° (SW) 710 -3.1 -6.5°
Drops below altitude 10° 05:04:51 10° 150° (SSE) 1,468 -1.1 -6.2°
Sets 05:07:03 0° 141° (SE) 2,325 0.0 -5.9°
